Location: Oberwangen
(47.4286°N, 8.9679°E)
Time: 09:07:42
(UTC+00:00)

Cosmos 2034 Rocket - Pass Details

Date: 20 June 2021
Orbit: 957 x 1001 km, 82.9° (Epoch: 04 August)

Event Time Altitude Azimuth Distance (km) Brightness Sun altitude
Rises 22:58:26 0° 348° (NNW) 3,667 8.7 -18.9°
Reaches altitude 10° 23:00:58 10° 346° (NNW) 2,712 7.6 -18.9°
Maximum altitude 23:07:04 64° 266° (W) 1,058 4.1 -19.0°
Enters shadow 23:10:06 30° 196° (SSW) 1,630 4.6 -19.0°
